Location: Luxembourg
(49.6117°N, 6.1300°E)
Time: 14:24:35
(UTC+02:00)

Envisat - Visible Passes

Search period start: 21 September 2017 00:00
Search period end: 01 October 2017 00:00
Orbit: 764 x 766 km, 98.2° (Epoch: 21 September)

Date Brightness Start Highest point End Pass type
(mag) Time Alt. Az. Time Alt. Az. Time Alt. Az.
21 Sep 3.5 20:29:00 10° SE 20:33:44 41° ENE 20:38:29 10° N visible
21 Sep 4.6 22:08:21 10° SSW 22:12:51 32° W 22:17:24 10° NNW visible
22 Sep 3.4 21:31:05 11° S 21:35:57 64° WSW 21:41:01 10° NNW visible
23 Sep 3.0 20:54:13 10° SSE 20:59:14 66° ENE 21:04:17 10° N visible
23 Sep 5.3 22:35:04 10° SW 22:38:43 20° W 22:42:24 10° NW visible
24 Sep 3.7 20:18:11 10° SE 20:22:42 34° ENE 20:27:16 10° N visible
24 Sep 4.2 21:57:21 12° SSW 22:01:40 39° W 22:06:26 10° NNW visible
25 Sep 3.1 21:20:22 14° S 21:24:49 78° WSW 21:29:56 10° NNW visible
25 Sep 5.8 23:02:54 10° WSW 23:04:42 12° W 23:06:30 10° WNW visible
26 Sep 3.1 20:43:23 11° SE 20:48:10 54° ENE 20:53:07 10° N visible
26 Sep 5.0 22:23:36 11° SW 22:27:30 24° W 22:31:36 10° NW visible
27 Sep 3.9 20:07:25 10° ESE 20:11:42 28° ENE 20:16:00 10° N visible
27 Sep 3.9 21:46:38 16° SSW 21:50:31 47° W 21:55:26 10° NNW visible
28 Sep 2.9 21:09:39 16° SSE 21:13:43 86° ENE 21:18:50 10° NNW visible
28 Sep 5.6 22:50:38 10° WSW 22:53:26 15° W 22:56:15 10° NW visible
29 Sep 3.4 20:32:41 12° SE 20:37:07 44° ENE 20:41:56 10° N visible
29 Sep 4.7 22:12:54 15° SSW 22:16:18 29° W 22:20:44 10° NNW visible
30 Sep 4.2 19:56:43 10° ESE 20:00:42 24° ENE 20:04:43 10° N visible
30 Sep 3.5 21:35:55 20° S 21:39:22 59° W 21:44:25 10° NNW visible
